Tracking 18856 objects as of 11-Dec-2017
HD Live streaming from Space Station
objects crossing your sky now

SL-12 R/B(AUX MOTOR)

Track SL-12 R/B(AUX MOTOR) now!


NORAD ID: 25053
Int'l Code: 1997-070E
Perigee: 1,280.6 km
Apogee: 32,881.9 km
Inclination: 46.1 °
Period: 595.7 minutes
Semi major axis: 23452 km
RCS: 0.8237 m2 (medium)
Launch date: November 12, 1997
Source: Commonwealth of Independent States (former USSR) (CIS)
Launch site: TYURATAM MISSILE AND SPACE COMPLEX (TTMTR)

Note: This is a ROCKET BODY
aabbcc
Your satellite tracking list
Your tracking list is empty




NASA's NSSDC Master Catalog

Two Line Element Set (TLE):
1 25053U 97070E   17343.45365349 +.00000008 +00000-0 +21677-1 0  9997
2 25053 046.0697 095.8275 6737358 205.4342 094.6574 02.41727137176669
Source of the keplerian elements: AFSPC